Date,TemperatureHighF,TemperatureAvgF,TemperatureLowF,DewpointHighF,DewpointAvgF,DewpointLowF,HumidityHigh,HumidityAvg,HumidityLow,PressureMaxIn,PressureMinIn,WindSpeedMaxMPH,WindSpeedAvgMPH,GustSpeedMaxMPH,PrecipitationSumIn
2013-3-1,45.0,41.5,36.3,38.7,31.9,28.0,90,69,55,30.40,30.34,8,3,14,0.01
2013-3-2,43.7,36.9,29.3,31.5,27.4,23.3,80,68,57,30.39,30.26,5,2,9,0.00
2013-3-3,48.9,39.4,26.1,34.0,30.2,20.4,86,70,52,30.26,30.09,9,3,11,0.00
2013-3-4,52.2,43.5,33.4,34.0,31.1,27.6,84,63,43,30.08,29.72,7,3,11,0.00
2013-3-5,68.2,48.7,32.0,41.3,35.5,27.7,90,64,37,29.71,29.56,5,1,8,0.00
2013-3-6,57.0,51.8,44.8,42.3,40.2,36.7,81,65,55,29.55,29.49,7,2,8,0.01
2013-3-7,50.7,48.4,45.1,47.9,45.4,41.9,93,89,82,29.49,29.35,5,2,8,0.21
2013-3-8,51.3,49.7,46.4,48.5,47.4,44.2,94,92,89,29.53,29.35,3,1,6,0.26
2013-3-9,46.4,43.5,38.5,44.2,39.7,33.2,93,86,79,29.66,29.51,4,1,7,0.02
2013-3-10,39.6,36.5,33.8,33.6,28.6,24.0,83,73,66,29.73,29.63,9,4,18,0.00
2013-3-11,33.8,32.1,28.4,24.5,18.7,11.7,69,58,40,29.75,29.70,0,0,0,0.19
2013-3-12,42.4,34.5,28.2,28.5,20.2,9.8,74,57,33,29.81,29.70,13,2,17,0.00
2013-3-13,49.1,40.3,30.6,29.6,24.8,17.1,78,55,30,29.94,29.76,5,2,11,0.00
2013-3-14,50.5,38.6,27.3,31.4,24.5,13.6,84,60,25,30.02,29.90,4,1,7,0.00
2013-3-15,49.8,44.7,37.8,42.2,37.9,25.3,87,77,60,29.89,29.52,6,2,11,0.28
2013-3-16,52.3,44.6,41.7,44.1,39.3,36.5,86,82,64,29.52,29.26,6,2,12,0.41
2013-3-17,48.4,41.5,32.9,41.6,36.8,29.2,88,83,76,29.30,29.14,5,1,9,0.32
2013-3-18,50.2,39.4,28.6,42.8,34.6,25.2,93,83,65,29.34,29.18,5,1,9,0.07
2013-3-19,48.9,40.9,36.0,37.8,33.5,30.2,89,76,55,29.49,29.34,5,2,7,0.00
2013-3-20,46.8,39.9,34.0,37.8,34.1,29.1,89,80,64,29.99,29.49,3,1,9,0.00
2013-3-21,45.1,39.5,34.7,33.3,30.2,27.8,82,69,54,30.00,29.89,9,4,11,0.05
2013-3-22,43.3,40.0,36.9,34.1,31.9,29.2,84,73,64,29.89,29.71,11,7,18,0.28
2013-3-23,37.9,34.6,33.4,33.7,30.1,29.2,87,84,82,29.86,29.71,9,5,15,0.18
2013-3-24,34.5,32.5,31.5,29.5,25.3,18.8,84,75,53,29.92,29.83,7,1,10,0.00
2013-3-25,34.5,33.7,32.7,23.5,20.6,18.2,66,58,52,29.95,29.91,0,0,0,0.00
2013-3-26,35.1,34.0,32.9,23.5,20.5,18.9,68,57,52,29.92,29.86,4,0,9,0.00
2013-3-27,40.8,36.0,30.7,24.2,21.6,17.9,73,56,47,29.88,29.83,6,4,13,0.00
2013-3-28,41.7,36.5,30.0,27.8,23.0,18.7,78,59,45,29.93,29.82,7,3,13,0.00
2013-3-29,46.9,38.6,27.7,25.8,19.5,11.6,71,48,26,29.90,29.77,8,4,14,0.00
2013-3-30,41.9,37.6,34.0,28.2,24.6,21.9,67,59,48,29.96,29.76,6,3,11,0.00
2013-3-31,41.7,36.2,27.1,26.8,22.3,18.7,77,58,43,29.97,29.88,5,2,10,0.00